Mayport NS, FL

5:10 AM EDT on April 23, 2017 (GMT -0400)
Mayport Naval Station / Adm. David L. McDonald Field

Weather History for KNRB - February, 2013

Change the Weather History Date:

Tuesday, February 19, 2013

  Actual Average Record
Temperature  
Mean Temperature 63 °F -  
Max Temperature 78 °F 64 °F 81 °F (2012)
Min Temperature 48 °F 50 °F 32 °F (2015)
Degree Days  
Heating Degree Days 2    
Growing Degree Days 13 (Base 50)    
Moisture  
Dew Point 51 °F    
Average Humidity 70    
Maximum Humidity 93    
Minimum Humidity 37    
Precipitation  
Precipitation 0.02 in - - ()
Sea Level Pressure  
Sea Level Pressure 30.12 in    
Wind  
Wind Speed 9 mph (SSW)    
Max Wind Speed 21 mph    
Max Gust Speed 29 mph    
Visibility 10 miles    
Events Rain    
Averages and records for this station are not official NWS values.
T = Trace of Precipitation, MM = Missing Value Source: NWS Daily Summary

Daily Weather History Graph

Daily Weather History Graph

Search for Another Location

Airport or City:

Trip Planner

Search our weather history database for the weather conditions in past years. The results will help you decide how hot, cold, wet, or windy it might be!

Date:

Astronomy

Feb. 19, 2013 Rise Set
Actual Time 7:02 AM EST 6:17 PM EST
Civil Twilight 6:37 AM EST 6:41 PM EST
Nautical Twilight 6:09 AM EST 7:09 PM EST
Astronomical Twilight 5:41 AM EST 7:37 PM EST
Moon 1:00 PM EST (2/19) 2:20 AM EST (2/19)
Length of Visible Light 12h 04m
Length of Day
11h 15m
Waxing Gibbous, 67% of the Moon is Illuminated
Feb 19
Waxing Gibbous
Feb 25
Full
Mar 4
Last Quarter
Mar 11
New
Mar 19
First Quarter

Hourly Weather History & Observations

Time (EST) Temp. Dew Point Humidity Pressure Visibility Wind Dir Wind Speed Gust Speed Precip Events Conditions
12:52 AM 55.0 °F 48.9 °F 80% 30.24 in 10.0 mi SSE 6.9 mph - N/A   Clear
1:52 AM 53.1 °F 48.0 °F 83% 30.22 in 10.0 mi South 6.9 mph - N/A   Clear
2:52 AM 48.9 °F 45.0 °F 86% 30.18 in 10.0 mi South 5.8 mph - N/A   Clear
3:52 AM 48.0 °F 46.0 °F 93% 30.17 in 10.0 mi South 6.9 mph - N/A   Clear
4:52 AM 50.0 °F 46.0 °F 86% 30.17 in 10.0 mi SSW 9.2 mph - N/A   Clear
5:52 AM 50.0 °F 45.0 °F 83% 30.16 in 10.0 mi SSW 9.2 mph - N/A   Clear
6:00 AM 48.2 °F 44.6 °F 87% 30.17 in 10.0 mi SSW 6.9 mph - N/A   Clear
6:52 AM 50.0 °F 45.0 °F 83% 30.17 in 10.0 mi South 8.1 mph - N/A   Scattered Clouds
7:52 AM 54.0 °F 46.0 °F 75% 30.17 in 10.0 mi SSW 8.1 mph - N/A   Partly Cloudy
8:52 AM 62.1 °F 48.0 °F 60% 30.18 in 10.0 mi South 11.5 mph - N/A   Scattered Clouds
9:52 AM 68.0 °F 51.1 °F 55% 30.17 in 10.0 mi South 17.3 mph 23.0 mph N/A   Mostly Cloudy
10:52 AM 72.0 °F 52.0 °F 49% 30.15 in 10.0 mi SSW 19.6 mph - N/A   Scattered Clouds
11:52 AM 73.9 °F 51.1 °F 45% 30.13 in 10.0 mi South 19.6 mph 28.8 mph N/A   Mostly Cloudy
12:52 PM 73.0 °F 48.9 °F 42% 30.09 in 10.0 mi SW 18.4 mph 26.5 mph N/A   Mostly Cloudy
1:52 PM 75.9 °F 50.0 °F 40% 30.05 in 10.0 mi SW 15.0 mph 24.2 mph N/A   Mostly Cloudy
2:52 PM 78.1 °F 50.0 °F 37% 30.02 in 10.0 mi SSW 20.7 mph 26.5 mph N/A   Mostly Cloudy
3:52 PM 75.9 °F 50.0 °F 40% 30.02 in 10.0 mi SW 16.1 mph 23.0 mph N/A   Mostly Cloudy
4:52 PM 73.0 °F 53.1 °F 49% 30.01 in 10.0 mi SW 11.5 mph - N/A   Overcast
5:52 PM 72.0 °F 54.0 °F 53% 30.03 in 10.0 mi WSW 9.2 mph - N/A   Overcast
7:52 PM 70.0 °F 55.9 °F 61% 30.06 in 10.0 mi WSW 6.9 mph - N/A   Overcast
8:52 PM 64.0 °F 61.0 °F 90% 30.09 in 10.0 mi West 5.8 mph - 0.01 in   Overcast
8:57 PM 64.4 °F 60.8 °F 88% 30.09 in 8.0 mi West 5.8 mph - 0.00 in Rain Light Rain
9:52 PM 63.0 °F 61.0 °F 93% 30.09 in 10.0 mi Calm Calm - 0.01 in   Overcast
10:52 PM 61.0 °F 57.9 °F 90% 30.11 in 10.0 mi Calm Calm - N/A   Mostly Cloudy
11:16 PM 60.8 °F 57.2 °F 88% 30.11 in 10.0 mi Calm Calm - N/A   Mostly Cloudy
11:52 PM 59.0 °F 57.0 °F 93% 30.11 in 10.0 mi Variable 3.5 mph - N/A   Mostly Cloudy